| time (UTC) | temp C | wind direction | speed KPH | gust KPH | rain 1hr cm | rain 24hr cm | rain mn cm | humidity % | barometer mb |
| 20260506191714 | 13 | 19 | 6.4 | 14.5 | 0.00 | 0.23 | 0.23 | 31 | 1014.2 |
| 20260506191214 | 12 | 38 | 6.4 | 12.9 | 0.00 | 0.23 | 0.23 | 29 | 1014.1 |
| 20260506190714 | 12 | 32 | 6.4 | 16.1 | 0.00 | 0.23 | 0.23 | 29 | 1014.0 |
| 20260506190214 | 12 | 17 | 8.0 | 16.1 | 0.00 | 0.23 | 0.23 | 27 | 1014.1 |
| 20260506185716 | 12 | 69 | 8.0 | 19.3 | 0.00 | 0.23 | 0.23 | 27 | 1014.2 |
| 20260506185214 | 12 | 22 | 6.4 | 12.9 | 0.00 | 0.23 | 0.23 | 29 | 1014.0 |
| 20260506184714 | 12 | 30 | 6.4 | 17.7 | 0.00 | 0.23 | 0.23 | 29 | 1014.1 |
| 20260506184214 | 12 | 67 | 6.4 | 14.5 | 0.00 | 0.23 | 0.23 | 28 | 1014.1 |
| 20260506183714 | 12 | 42 | 6.4 | 12.9 | 0.00 | 0.23 | 0.23 | 28 | 1014.2 |
| 20260506183214 | 12 | 54 | 6.4 | 24.1 | 0.00 | 0.23 | 0.23 | 27 | 1014.3 |
| 20260506182714 | 12 | 17 | 6.4 | 12.9 | 0.00 | 0.23 | 0.23 | 30 | 1014.2 |
| 20260506182214 | 12 | 346 | 6.4 | 22.5 | 0.00 | 0.23 | 0.23 | 28 | 1014.2 |
| 20260506181714 | 11 | 30 | 6.4 | 17.7 | 0.00 | 0.23 | 0.23 | 31 | 1014.2 |
| 20260506181214 | 11 | 0 | 6.4 | 16.1 | 0.00 | 0.23 | 0.23 | 27 | 1014.2 |
| 20260506180714 | 11 | 31 | 6.4 | 16.1 | 0.00 | 0.23 | 0.23 | 28 | 1014.1 |
| 20260506180214 | 11 | 24 | 8.0 | 16.1 | 0.00 | 0.23 | 0.23 | 29 | 1014.0 |
| 20260506175714 | 11 | 47 | 8.0 | 17.7 | 0.00 | 0.23 | 0.23 | 28 | 1014.2 |
| 20260506175214 | 11 | 40 | 8.0 | 17.7 | 0.00 | 0.23 | 0.23 | 27 | 1014.1 |
| 20260506174714 | 11 | 37 | 8.0 | 17.7 | 0.00 | 0.23 | 0.23 | 27 | 1014.0 |
| 20260506174214 | 11 | 46 | 8.0 | 16.1 | 0.00 | 0.23 | 0.23 | 29 | 1013.9 |
| 20260506173714 | 11 | 16 | 8.0 | 16.1 | 0.00 | 0.23 | 0.23 | 29 | 1013.8 |
| 20260506173214 | 11 | 28 | 8.0 | 20.9 | 0.00 | 0.23 | 0.23 | 30 | 1013.8 |
| 20260506172714 | 11 | 65 | 8.0 | 16.1 | 0.00 | 0.23 | 0.23 | 30 | 1013.6 |
| 20260506172214 | 11 | 13 | 9.7 | 22.5 | 0.00 | 0.23 | 0.23 | 29 | 1013.6 |
| 20260506171714 | 11 | 47 | 9.7 | 19.3 | 0.00 | 0.23 | 0.23 | 30 | 1013.6 |
| 20260506171214 | 11 | 14 | 8.0 | 22.5 | 0.00 | 0.23 | 0.23 | 29 | 1013.5 |
| 20260506170715 | 11 | 20 | 8.0 | 16.1 | 0.00 | 0.23 | 0.23 | 30 | 1013.4 |
| 20260506170214 | 11 | 62 | 9.7 | 24.1 | 0.00 | 0.23 | 0.23 | 28 | 1013.4 |
| 20260506165714 | 11 | 15 | 8.0 | 22.5 | 0.00 | 0.23 | 0.23 | 25 | 1013.3 |
| 20260506165215 | 10 | 19 | 8.0 | 17.7 | 0.00 | 0.23 | 0.23 | 28 | 1013.3 |
| 20260506164715 | 10 | 32 | 8.0 | 19.3 | 0.00 | 0.23 | 0.23 | 26 | 1013.2 |
| 20260506164214 | 10 | 49 | 8.0 | 14.5 | 0.00 | 0.23 | 0.23 | 27 | 1013.1 |
| 20260506163715 | 10 | 44 | 8.0 | 16.1 | 0.00 | 0.23 | 0.23 | 26 | 1013.0 |
| 20260506163214 | 10 | 51 | 8.0 | 16.1 | 0.00 | 0.23 | 0.23 | 28 | 1012.9 |
| 20260506162715 | 10 | 34 | 8.0 | 22.5 | 0.00 | 0.23 | 0.23 | 26 | 1012.9 |
| 20260506162214 | 11 | 37 | 8.0 | 14.5 | 0.00 | 0.23 | 0.23 | 27 | 1012.6 |
| 20260506161715 | 10 | 114 | 6.4 | 19.3 | 0.00 | 0.23 | 0.23 | 29 | 1012.6 |
| 20260506161215 | 10 | 26 | 8.0 | 12.9 | 0.00 | 0.23 | 0.23 | 29 | 1012.5 |
| 20260506160715 | 10 | 33 | 8.0 | 22.5 | 0.00 | 0.23 | 0.23 | 31 | 1012.3 |
| 20260506160215 | 10 | 90 | 8.0 | 17.7 | 0.00 | 0.23 | 0.23 | 35 | 1012.3 |
| 20260506155715 | 10 | 26 | 6.4 | 14.5 | 0.00 | 0.23 | 0.23 | 35 | 1012.3 |
| 20260506155215 | 10 | 25 | 8.0 | 16.1 | 0.00 | 0.23 | 0.23 | 36 | 1012.3 |
| 20260506154715 | 10 | 36 | 8.0 | 17.7 | 0.00 | 0.23 | 0.23 | 36 | 1012.1 |
| 20260506154215 | 10 | 76 | 8.0 | 17.7 | 0.00 | 0.23 | 0.23 | 37 | 1012.1 |
| 20260506153715 | 10 | 74 | 8.0 | 16.1 | 0.00 | 0.23 | 0.23 | 37 | 1012.0 |
| 20260506153215 | 10 | 34 | 6.4 | 19.3 | 0.00 | 0.23 | 0.23 | 38 | 1011.9 |
| 20260506152715 | 10 | 80 | 6.4 | 16.1 | 0.00 | 0.23 | 0.23 | 37 | 1011.9 |
| 20260506152215 | 10 | 47 | 6.4 | 19.3 | 0.00 | 0.23 | 0.23 | 40 | 1011.8 |
| 20260506151715 | 10 | 35 | 6.4 | 12.9 | 0.00 | 0.23 | 0.23 | 40 | 1011.7 |
| 20260506151215 | 10 | 30 | 6.4 | 16.1 | 0.00 | 0.23 | 0.23 | 40 | 1011.6 |
| 20260506150715 | 10 | 67 | 6.4 | 16.1 | 0.00 | 0.23 | 0.23 | 42 | 1011.6 |
| 20260506150215 | 10 | 56 | 4.8 | 16.1 | 0.00 | 0.23 | 0.23 | 46 | 1011.6 |
| 20260506145715 | 10 | 46 | 4.8 | 11.3 | 0.00 | 0.23 | 0.23 | 47 | 1011.5 |
| 20260506145215 | 10 | 24 | 4.8 | 11.3 | 0.00 | 0.23 | 0.23 | 47 | 1011.4 |
| 20260506144715 | 10 | 5 | 3.2 | 12.9 | 0.00 | 0.23 | 0.23 | 47 | 1011.3 |
| 20260506144215 | 10 | 348 | 4.8 | 9.7 | 0.00 | 0.23 | 0.23 | 47 | 1011.3 |
| 20260506143715 | 9 | 346 | 4.8 | 12.9 | 0.00 | 0.23 | 0.23 | 46 | 1011.2 |
| 20260506143215 | 9 | 341 | 3.2 | 11.3 | 0.00 | 0.23 | 0.23 | 47 | 1011.1 |
| 20260506142715 | 9 | 338 | 3.2 | 9.7 | 0.00 | 0.23 | 0.23 | 49 | 1011.2 |
| 20260506142215 | 9 | 337 | 3.2 | 11.3 | 0.00 | 0.23 | 0.23 | 48 | 1011.3 |
| 20260506141715 | 8 | 329 | 3.2 | 8.0 | 0.00 | 0.23 | 0.23 | 50 | 1011.2 |
| 20260506141215 | 8 | 326 | 3.2 | 8.0 | 0.00 | 0.23 | 0.23 | 50 | 1011.2 |
| 20260506140715 | 8 | 321 | 3.2 | 11.3 | 0.00 | 0.23 | 0.23 | 52 | 1011.1 |
| 20260506140215 | 8 | 321 | 3.2 | 11.3 | 0.00 | 0.23 | 0.23 | 55 | 1011.0 |
| 20260506135715 | 7 | 320 | 3.2 | 6.4 | 0.00 | 0.23 | 0.23 | 56 | 1011.0 |
| 20260506135215 | 7 | 320 | 3.2 | 8.0 | 0.00 | 0.23 | 0.23 | 57 | 1010.9 |
| 20260506134715 | 7 | 320 | 3.2 | 6.4 | 0.00 | 0.23 | 0.23 | 61 | 1010.8 |
| 20260506134215 | 6 | 320 | 1.6 | 8.0 | 0.00 | 0.23 | 0.23 | 63 | 1010.6 |
| 20260506133715 | 6 | 320 | 1.6 | 6.4 | 0.00 | 0.23 | 0.23 | 67 | 1010.6 |
| 20260506133215 | 6 | 320 | 1.6 | 4.8 | 0.00 | 0.23 | 0.23 | 68 | 1010.5 |
| 20260506132715 | 6 | 320 | 1.6 | 6.4 | 0.00 | 0.23 | 0.23 | 68 | 1010.4 |
| 20260506132215 | 6 | 320 | 0.0 | 6.4 | 0.00 | 0.23 | 0.23 | 69 | 1010.3 |
| 20260506131715 | 6 | 320 | 1.6 | 6.4 | 0.00 | 0.23 | 0.23 | 68 | 1010.2 |
| 20260506131215 | 5 | 320 | 1.6 | 8.0 | 0.00 | 0.23 | 0.23 | 68 | 1010.1 |
| 20260506130715 | 5 | 320 | 1.6 | 6.4 | 0.00 | 0.23 | 0.23 | 68 | 1010.0 |
| 20260506130215 | 5 | 320 | 1.6 | 6.4 | 0.00 | 0.23 | 0.23 | 70 | 1009.9 |
| 20260506125715 | 5 | 320 | 1.6 | 3.2 | 0.00 | 0.23 | 0.23 | 71 | 1009.9 |
| 20260506125215 | 5 | 320 | 1.6 | 4.8 | 0.00 | 0.23 | 0.23 | 71 | 1009.8 |
| 20260506124715 | 5 | 320 | 1.6 | 3.2 | 0.00 | 0.23 | 0.23 | 72 | 1009.8 |
| 20260506124215 | 5 | 320 | 1.6 | 4.8 | 0.00 | 0.23 | 0.23 | 72 | 1009.6 |
| 20260506123715 | 5 | 320 | 0.0 | 3.2 | 0.00 | 0.23 | 0.23 | 73 | 1009.6 |
| 20260506123215 | 5 | 320 | 1.6 | 3.2 | 0.00 | 0.23 | 0.23 | 73 | 1009.5 |
| 20260506122715 | 5 | 320 | 1.6 | 6.4 | 0.00 | 0.23 | 0.23 | 74 | 1009.5 |
| 20260506122215 | 5 | 320 | 1.6 | 3.2 | 0.00 | 0.23 | 0.23 | 74 | 1009.6 |
| 20260506121715 | 5 | 320 | 1.6 | 4.8 | 0.00 | 0.23 | 0.23 | 75 | 1009.5 |
| 20260506121215 | 4 | 320 | 1.6 | 4.8 | 0.00 | 0.23 | 0.23 | 76 | 1009.6 |
| 20260506120715 | 4 | 320 | 1.6 | 3.2 | 0.00 | 0.23 | 0.23 | 77 | 1009.4 |
| 20260506120215 | 4 | 320 | 1.6 | 4.8 | 0.00 | 0.23 | 0.23 | 77 | 1009.3 |
| 20260506115715 | 4 | 320 | 0.0 | 3.2 | 0.00 | 0.23 | 0.23 | 78 | 1009.3 |
| 20260506115215 | 4 | 320 | 1.6 | 3.2 | 0.00 | 0.23 | 0.23 | 78 | 1009.3 |
| 20260506114715 | 4 | 320 | 1.6 | 6.4 | 0.00 | 0.23 | 0.23 | 78 | 1009.2 |
| 20260506114215 | 4 | 320 | 1.6 | 6.4 | 0.00 | 0.23 | 0.23 | 78 | 1009.2 |
| 20260506113715 | 4 | 320 | 1.6 | 9.7 | 0.00 | 0.23 | 0.23 | 78 | 1009.1 |
| 20260506113215 | 4 | 320 | 3.2 | 9.7 | 0.00 | 0.23 | 0.23 | 78 | 1009.3 |
| 20260506112715 | 4 | 320 | 3.2 | 8.0 | 0.00 | 0.23 | 0.23 | 78 | 1009.2 |
| 20260506112215 | 4 | 320 | 3.2 | 9.7 | 0.00 | 0.23 | 0.23 | 78 | 1009.1 |
| 20260506111715 | 4 | 320 | 4.8 | 9.7 | 0.00 | 0.23 | 0.23 | 79 | 1009.2 |
| 20260506111215 | 4 | 320 | 4.8 | 12.9 | 0.00 | 0.23 | 0.23 | 79 | 1009.3 |
| 20260506110715 | 4 | 319 | 4.8 | 14.5 | 0.00 | 0.23 | 0.23 | 79 | 1009.1 |
| 20260506110215 | 4 | 319 | 4.8 | 14.5 | 0.00 | 0.23 | 0.23 | 80 | 1009.2 |
| 20260506105715 | 4 | 319 | 4.8 | 12.9 | 0.00 | 0.23 | 0.23 | 81 | 1009.1 |
| 20260506105215 | 4 | 319 | 4.8 | 16.1 | 0.03 | 0.23 | 0.23 | 81 | 1008.9 |
| 20260506104715 | 4 | 325 | 4.8 | 11.3 | 0.03 | 0.23 | 0.23 | 82 | 1008.8 |
| 20260506104215 | 3 | 325 | 6.4 | 17.7 | 0.03 | 0.23 | 0.23 | 83 | 1008.8 |
| 20260506103715 | 3 | 327 | 6.4 | 19.3 | 0.03 | 0.23 | 0.23 | 85 | 1008.7 |
| 20260506103215 | 3 | 324 | 4.8 | 14.5 | 0.03 | 0.23 | 0.23 | 86 | 1008.6 |
| 20260506102715 | 3 | 325 | 4.8 | 9.7 | 0.03 | 0.23 | 0.23 | 86 | 1008.4 |
| 20260506102215 | 3 | 325 | 4.8 | 11.3 | 0.03 | 0.23 | 0.23 | 87 | 1008.3 |
| 20260506101715 | 4 | 323 | 4.8 | 14.5 | 0.03 | 0.23 | 0.23 | 87 | 1008.1 |
| 20260506101215 | 4 | 322 | 4.8 | 12.9 | 0.03 | 0.23 | 0.23 | 87 | 1008.0 |
| 20260506100715 | 4 | 321 | 4.8 | 12.9 | 0.05 | 0.23 | 0.23 | 87 | 1008.0 |
| 20260506100215 | 4 | 323 | 4.8 | 11.3 | 0.05 | 0.23 | 0.23 | 88 | 1007.8 |
| 20260506095715 | 5 | 324 | 4.8 | 16.1 | 0.08 | 0.23 | 0.23 | 88 | 1007.8 |
| 20260506095215 | 5 | 327 | 4.8 | 12.9 | 0.05 | 0.20 | 0.20 | 88 | 1007.6 |
| 20260506094715 | 5 | 328 | 4.8 | 12.9 | 0.10 | 0.20 | 0.20 | 88 | 1007.5 |
| 20260506094215 | 5 | 331 | 4.8 | 12.9 | 0.18 | 0.20 | 0.20 | 88 | 1007.2 |
| 20260506093715 | 5 | 5 | 3.2 | 12.9 | 0.20 | 0.20 | 0.20 | 88 | 1007.2 |
| 20260506093215 | 5 | 19 | 3.2 | 8.0 | 0.20 | 0.20 | 0.20 | 87 | 1007.2 |
| 20260506092715 | 5 | 19 | 3.2 | 11.3 | 0.20 | 0.20 | 0.20 | 87 | 1007.2 |
| 20260506092215 | 5 | 26 | 3.2 | 8.0 | 0.20 | 0.20 | 0.20 | 86 | 1007.2 |
| 20260506091715 | 5 | 28 | 1.6 | 8.0 | 0.20 | 0.20 | 0.20 | 86 | 1007.1 |
| 20260506091215 | 5 | 28 | 1.6 | 8.0 | 0.20 | 0.20 | 0.20 | 85 | 1007.1 |
| 20260506090715 | 5 | 30 | 1.6 | 8.0 | 0.18 | 0.18 | 0.18 | 84 | 1007.0 |
| 20260506090215 | 5 | 33 | 3.2 | 9.7 | 0.18 | 0.18 | 0.18 | 82 | 1006.8 |
| 20260506085715 | 6 | 38 | 6.4 | 14.5 | 0.15 | 0.15 | 0.15 | 80 | 1006.8 |
| 20260506085215 | 6 | 59 | 8.0 | 17.7 | 0.15 | 0.15 | 0.15 | 75 | 1006.7 |
| 20260506084715 | 7 | 70 | 4.8 | 17.7 | 0.10 | 0.10 | 0.10 | 73 | 1006.5 |
| 20260506084215 | 8 | 277 | 3.2 | 8.0 | 0.03 | 0.03 | 0.03 | 76 | 1005.9 |
| 20260506083715 | 8 | 276 | 1.6 | 9.7 | 0.00 | 0.00 | 0.00 | 75 | 1004.8 |
| 20260506083215 | 8 | 276 | 0.0 | 3.2 | 0.00 | 0.00 | 0.00 | 74 | 1004.5 |
| 20260506082715 | 8 | 275 | 0.0 | 0.0 | 0.00 | 0.00 | 0.00 | 73 | 1004.0 |
| 20260506082215 | 8 | 276 | 0.0 | 0.0 | 0.00 | 0.00 | 0.00 | 72 | 1003.9 |
| 20260506081715 | 8 | 275 | 0.0 | 0.0 | 0.00 | 0.00 | 0.00 | 70 | 1004.1 |
| 20260506081215 | 9 | 275 | 0.0 | 0.0 | 0.00 | 0.00 | 0.00 | 69 | 1004.0 |
| 20260506080715 | 9 | 275 | 0.0 | 0.0 | 0.00 | 0.00 | 0.00 | 68 | 1004.0 |
| 20260506080215 | 9 | 276 | 0.0 | 0.0 | 0.00 | 0.00 | 0.00 | 66 | 1004.1 |
| 20260506073215 | 9 | 275 | 1.6 | 4.8 | 0.00 | 0.00 | 0.00 | 67 | 1004.3 |
| 20260506072716 | 9 | 275 | 3.2 | 4.8 | 0.00 | 0.00 | 0.00 | 69 | 1004.3 |
| 20260506072216 | 9 | 276 | 4.8 | 12.9 | 0.00 | 0.00 | 0.00 | 69 | 1004.3 |
| 20260506071716 | 8 | 276 | 6.4 | 14.5 | 0.00 | 0.00 | 0.00 | 70 | 1004.2 |
| 20260506071216 | 8 | 277 | 6.4 | 17.7 | 0.00 | 0.00 | 0.00 | 71 | 1004.1 |
| 20260506070716 | 8 | 275 | 4.8 | 14.5 | 0.00 | 0.00 | 0.00 | 73 | 1004.2 |
| 20260506070216 | 9 | 275 | 4.8 | 11.3 | 0.00 | 0.00 | 0.00 | 73 | 1004.1 |
| 20260506062216 | 10 | 273 | 6.4 | 25.7 | 0.00 | 0.00 | 0.00 | 63 | 1003.7 |
| 20260506061716 | 10 | 281 | 4.8 | 14.5 | 0.00 | 0.00 | 0.00 | 62 | 1003.7 |
| 20260506061216 | 10 | 289 | 3.2 | 9.7 | 0.00 | 0.00 | 0.00 | 62 | 1003.7 |
| 20260506060716 | 10 | 292 | 1.6 | 8.0 | 0.00 | 0.00 | 0.00 | 62 | 1003.6 |
| 20260506060216 | 10 | 292 | 0.0 | 8.0 | 0.00 | 0.00 | 0.00 | 62 | 1003.6 |
| 20260506051216 | 9 | 169 | 0.0 | 0.0 | 0.00 | 0.00 | 0.00 | 65 | 1002.9 |
| 20260506050716 | 8 | 169 | 0.0 | 0.0 | 0.00 | 0.00 | 0.00 | 65 | 1002.8 |
| 20260506050216 | 8 | 169 | 0.0 | 0.0 | 0.00 | 0.00 | 0.00 | 65 | 1002.6 |
| 20260506044716 | 8 | 169 | 0.0 | 0.0 | 0.00 | 0.00 | 0.00 | 66 | 1002.5 |
| 20260506044216 | 8 | 169 | 0.0 | 0.0 | 0.00 | 0.00 | 0.00 | 66 | 1002.4 |
| 20260506043716 | 8 | 169 | 0.0 | 0.0 | 0.00 | 0.00 | 0.00 | 66 | 1002.4 |
| 20260506043216 | 8 | 169 | 0.0 | 0.0 | 0.00 | 0.00 | 0.00 | 66 | 1002.5 |
| 20260506042716 | 8 | 169 | 0.0 | 0.0 | 0.00 | 0.00 | 0.00 | 66 | 1002.5 |
| 20260506042216 | 8 | 169 | 0.0 | 0.0 | 0.00 | 0.00 | 0.00 | 66 | 1002.4 |
| 20260506041716 | 8 | 169 | 0.0 | 0.0 | 0.00 | 0.00 | 0.00 | 65 | 1002.4 |
| 20260506041216 | 8 | 169 | 0.0 | 0.0 | 0.00 | 0.00 | 0.00 | 65 | 1002.3 |
| 20260506040716 | 8 | 169 | 0.0 | 0.0 | 0.00 | 0.00 | 0.00 | 65 | 1002.3 |
| 20260506040216 | 8 | 169 | 0.0 | 0.0 | 0.00 | 0.00 | 0.00 | 64 | 1002.3 |
| 20260506035716 | 8 | 169 | 0.0 | 0.0 | 0.00 | 0.00 | 0.00 | 64 | 1002.3 |
| 20260506035216 | 9 | 169 | 0.0 | 0.0 | 0.00 | 0.00 | 0.00 | 64 | 1002.3 |
| 20260506034716 | 9 | 169 | 0.0 | 0.0 | 0.00 | 0.00 | 0.00 | 63 | 1002.3 |
| 20260506034216 | 9 | 169 | 0.0 | 0.0 | 0.00 | 0.00 | 0.00 | 63 | 1002.3 |
| 20260506033716 | 9 | 169 | 0.0 | 0.0 | 0.00 | 0.00 | 0.00 | 64 | 1002.2 |
| 20260506033216 | 9 | 169 | 0.0 | 0.0 | 0.00 | 0.00 | 0.00 | 63 | 1002.0 |
| 20260506032716 | 9 | 169 | 0.0 | 0.0 | 0.00 | 0.00 | 0.00 | 63 | 1002.0 |
| 20260506032216 | 9 | 169 | 0.0 | 0.0 | 0.00 | 0.00 | 0.00 | 62 | 1002.0 |
| 20260506031716 | 10 | 169 | 0.0 | 0.0 | 0.00 | 0.00 | 0.00 | 62 | 1001.8 |
| 20260506031216 | 10 | 169 | 0.0 | 0.0 | 0.00 | 0.00 | 0.00 | 61 | 1001.8 |
| 20260506030716 | 10 | 169 | 0.0 | 0.0 | 0.00 | 0.00 | 0.00 | 61 | 1001.8 |
| 20260506030216 | 10 | 169 | 0.0 | 0.0 | 0.00 | 0.00 | 0.00 | 60 | 1001.7 |
| 20260506025716 | 10 | 169 | 0.0 | 0.0 | 0.00 | 0.00 | 0.00 | 59 | 1001.6 |
| 20260506025216 | 10 | 169 | 0.0 | 0.0 | 0.00 | 0.00 | 0.00 | 59 | 1001.6 |
| 20260506024716 | 11 | 169 | 0.0 | 0.0 | 0.00 | 0.00 | 0.00 | 59 | 1001.5 |
| 20260506024216 | 11 | 169 | 0.0 | 0.0 | 0.00 | 0.00 | 0.00 | 58 | 1001.4 |
| 20260506023716 | 11 | 169 | 0.0 | 0.0 | 0.00 | 0.00 | 0.00 | 57 | 1001.4 |
| 20260506023216 | 11 | 169 | 0.0 | 0.0 | 0.00 | 0.00 | 0.00 | 57 | 1001.3 |
| 20260506022716 | 11 | 169 | 0.0 | 0.0 | 0.00 | 0.00 | 0.00 | 56 | 1001.3 |
| 20260506022216 | 11 | 169 | 0.0 | 0.0 | 0.00 | 0.00 | 0.00 | 55 | 1001.1 |
| 20260506021716 | 11 | 169 | 0.0 | 0.0 | 0.00 | 0.00 | 0.00 | 55 | 1001.1 |
| 20260506021216 | 11 | 169 | 1.6 | 6.4 | 0.00 | 0.00 | 0.00 | 54 | 1001.1 |
| 20260506020716 | 11 | 168 | 1.6 | 3.2 | 0.00 | 0.00 | 0.00 | 54 | 1001.1 |
| 20260506020216 | 12 | 167 | 1.6 | 6.4 | 0.00 | 0.00 | 0.00 | 54 | 1001.0 |
| 20260506015716 | 12 | 167 | 1.6 | 4.8 | 0.00 | 0.00 | 0.00 | 54 | 1001.1 |
| 20260506015216 | 12 | 166 | 1.6 | 6.4 | 0.00 | 0.00 | 0.00 | 54 | 1001.0 |
| 20260506014716 | 12 | 165 | 1.6 | 4.8 | 0.00 | 0.00 | 0.00 | 53 | 1001.1 |
| 20260506014216 | 12 | 165 | 1.6 | 4.8 | 0.00 | 0.00 | 0.00 | 53 | 1001.0 |
| 20260506013716 | 12 | 165 | 1.6 | 4.8 | 0.00 | 0.00 | 0.00 | 52 | 1001.0 |
| 20260506013216 | 13 | 165 | 1.6 | 6.4 | 0.00 | 0.00 | 0.00 | 51 | 1001.0 |
| 20260506012716 | 13 | 165 | 0.0 | 4.8 | 0.00 | 0.00 | 0.00 | 51 | 1000.9 |
| 20260506012216 | 13 | 165 | 0.0 | 0.0 | 0.00 | 0.00 | 0.00 | 51 | 1000.8 |
| 20260506011716 | 13 | 165 | 1.6 | 3.2 | 0.00 | 0.00 | 0.00 | 51 | 1000.9 |
| 20260506011216 | 13 | 165 | 3.2 | 6.4 | 0.00 | 0.00 | 0.00 | 51 | 1000.8 |
| 20260506010716 | 13 | 165 | 3.2 | 9.7 | 0.00 | 0.00 | 0.00 | 50 | 1000.9 |
| 20260506010216 | 13 | 182 | 3.2 | 6.4 | 0.00 | 0.00 | 0.00 | 51 | 1000.9 |
| 20260506005716 | 13 | 181 | 3.2 | 6.4 | 0.00 | 0.00 | 0.00 | 50 | 1000.8 |
| 20260506005216 | 13 | 181 | 3.2 | 8.0 | 0.00 | 0.00 | 0.00 | 51 | 1000.8 |
| 20260506004716 | 13 | 163 | 3.2 | 8.0 | 0.00 | 0.00 | 0.00 | 51 | 1000.8 |
| 20260506004216 | 13 | 164 | 3.2 | 9.7 | 0.00 | 0.00 | 0.00 | 51 | 1000.8 |
| 20260506003716 | 13 | 184 | 3.2 | 8.0 | 0.00 | 0.00 | 0.00 | 51 | 1000.8 |
| 20260506003216 | 13 | 194 | 3.2 | 6.4 | 0.00 | 0.00 | 0.00 | 51 | 1000.7 |
| 20260506002716 | 13 | 188 | 3.2 | 6.4 | 0.00 | 0.00 | 0.00 | 51 | 1000.7 |
| 20260506002216 | 13 | 188 | 3.2 | 9.7 | 0.00 | 0.00 | 0.00 | 51 | 1000.8 |
| 20260506001716 | 13 | 154 | 3.2 | 9.7 | 0.00 | 0.00 | 0.00 | 51 | 1000.8 |
| 20260506001216 | 13 | 159 | 1.6 | 9.7 | 0.00 | 0.00 | 0.00 | 52 | 1000.8 |
| 20260506000716 | 13 | 164 | 1.6 | 4.8 | 0.00 | 0.00 | 0.00 | 52 | 1000.7 |
| 20260506000219 | 13 | 164 | 3.2 | 6.4 | 0.00 | 0.00 | 0.00 | 52 | 1000.8 |
| 20260505235716 | 13 | 164 | 1.6 | 8.0 | 0.00 | 0.00 | 0.00 | 52 | 1000.9 |
| 20260505235216 | 13 | 161 | 1.6 | 3.2 | 0.00 | 0.00 | 0.00 | 53 | 1000.8 |
| 20260505234716 | 13 | 161 | 1.6 | 6.4 | 0.00 | 0.00 | 0.00 | 53 | 1000.8 |
| 20260505234216 | 13 | 160 | 1.6 | 11.3 | 0.00 | 0.00 | 0.00 | 54 | 1000.9 |
| 20260505233716 | 13 | 180 | 3.2 | 6.4 | 0.00 | 0.00 | 0.00 | 52 | 1000.8 |
| 20260505233216 | 13 | 178 | 3.2 | 9.7 | 0.00 | 0.00 | 0.00 | 52 | 1000.8 |
| 20260505232716 | 13 | 201 | 1.6 | 9.7 | 0.00 | 0.00 | 0.00 | 53 | 1000.8 |
| 20260505232216 | 13 | 193 | 1.6 | 8.0 | 0.00 | 0.00 | 0.00 | 54 | 1000.9 |
| 20260505231716 | 13 | 184 | 1.6 | 6.4 | 0.00 | 0.00 | 0.00 | 54 | 1000.9 |
| 20260505231216 | 13 | 184 | 1.6 | 6.4 | 0.00 | 0.00 | 0.00 | 56 | 1001.0 |
| 20260505230716 | 13 | 185 | 1.6 | 6.4 | 0.00 | 0.00 | 0.00 | 56 | 1001.0 |
| 20260505230216 | 12 | 186 | 1.6 | 4.8 | 0.00 | 0.00 | 0.00 | 57 | 1001.0 |
| 20260505225716 | 12 | 186 | 1.6 | 6.4 | 0.00 | 0.00 | 0.00 | 58 | 1001.1 |
| 20260505225216 | 12 | 185 | 1.6 | 6.4 | 0.00 | 0.00 | 0.00 | 61 | 1001.1 |
| 20260505224716 | 12 | 186 | 1.6 | 6.4 | 0.00 | 0.00 | 0.00 | 62 | 1001.2 |
| 20260505224216 | 11 | 186 | 1.6 | 4.8 | 0.00 | 0.00 | 0.00 | 61 | 1001.2 |
| 20260505223716 | 11 | 186 | 1.6 | 3.2 | 0.00 | 0.00 | 0.00 | 61 | 1001.3 |
| 20260505223216 | 11 | 186 | 0.0 | 4.8 | 0.00 | 0.00 | 0.00 | 62 | 1001.5 |
| 20260505222716 | 11 | 186 | 0.0 | 4.8 | 0.00 | 0.00 | 0.00 | 60 | 1001.6 |
| 20260505222216 | 11 | 186 | 1.6 | 1.6 | 0.00 | 0.00 | 0.00 | 61 | 1001.6 |
| 20260505221716 | 11 | 165 | 1.6 | 8.0 | 0.00 | 0.00 | 0.00 | 60 | 1001.6 |
| 20260505221216 | 12 | 163 | 1.6 | 4.8 | 0.00 | 0.00 | 0.00 | 58 | 1001.6 |
| 20260505220716 | 12 | 163 | 1.6 | 4.8 | 0.00 | 0.00 | 0.00 | 56 | 1001.7 |
| 20260505220216 | 12 | 163 | 1.6 | 3.2 | 0.00 | 0.00 | 0.00 | 53 | 1001.7 |
| 20260505215716 | 12 | 163 | 1.6 | 4.8 | 0.00 | 0.00 | 0.00 | 52 | 1001.7 |
| 20260505215216 | 12 | 163 | 1.6 | 4.8 | 0.00 | 0.00 | 0.00 | 53 | 1001.6 |
| 20260505214716 | 12 | 163 | 3.2 | 6.4 | 0.00 | 0.00 | 0.00 | 52 | 1001.7 |
| 20260505214216 | 12 | 165 | 3.2 | 6.4 | 0.00 | 0.00 | 0.00 | 52 | 1001.6 |
| 20260505213716 | 12 | 166 | 3.2 | 8.0 | 0.00 | 0.00 | 0.00 | 53 | 1001.6 |
| 20260505213216 | 12 | 165 | 1.6 | 8.0 | 0.00 | 0.00 | 0.00 | 53 | 1001.6 |
| 20260505212717 | 12 | 163 | 3.2 | 4.8 | 0.00 | 0.00 | 0.00 | 54 | 1001.5 |
| 20260505212216 | 12 | 163 | 3.2 | 11.3 | 0.00 | 0.00 | 0.00 | 53 | 1001.5 |
| 20260505211716 | 12 | 175 | 3.2 | 4.8 | 0.00 | 0.00 | 0.00 | 54 | 1001.5 |
| 20260505211217 | 12 | 175 | 3.2 | 8.0 | 0.00 | 0.00 | 0.00 | 53 | 1001.5 |
| 20260505210716 | 12 | 173 | 3.2 | 8.0 | 0.00 | 0.00 | 0.00 | 54 | 1001.5 |
| 20260505210217 | 12 | 174 | 3.2 | 8.0 | 0.00 | 0.00 | 0.00 | 54 | 1001.5 |
| 20260505205717 | 12 | 178 | 3.2 | 9.7 | 0.00 | 0.00 | 0.00 | 55 | 1001.5 |
| 20260505205217 | 12 | 179 | 3.2 | 4.8 | 0.00 | 0.00 | 0.00 | 55 | 1001.6 |
| 20260505204717 | 12 | 179 | 3.2 | 6.4 | 0.00 | 0.00 | 0.00 | 55 | 1001.6 |
| 20260505204217 | 12 | 179 | 3.2 | 6.4 | 0.00 | 0.00 | 0.00 | 55 | 1001.5 |
| 20260505203717 | 12 | 178 | 1.6 | 8.0 | 0.00 | 0.00 | 0.00 | 55 | 1001.4 |
| 20260505203217 | 12 | 179 | 3.2 | 6.4 | 0.00 | 0.00 | 0.00 | 55 | 1001.5 |
| 20260505202717 | 12 | 175 | 3.2 | 6.4 | 0.00 | 0.00 | 0.00 | 55 | 1001.4 |
| 20260505202217 | 11 | 175 | 3.2 | 9.7 | 0.00 | 0.00 | 0.00 | 55 | 1001.5 |
| 20260505201717 | 11 | 177 | 3.2 | 8.0 | 0.00 | 0.00 | 0.00 | 55 | 1001.4 |
| 20260505201217 | 11 | 174 | 3.2 | 9.7 | 0.00 | 0.00 | 0.00 | 55 | 1001.4 |
| 20260505200717 | 11 | 177 | 3.2 | 8.0 | 0.00 | 0.00 | 0.00 | 55 | 1001.5 |
| 20260505200217 | 11 | 175 | 3.2 | 8.0 | 0.00 | 0.00 | 0.00 | 55 | 1001.4 |
| 20260505195717 | 11 | 173 | 3.2 | 6.4 | 0.00 | 0.00 | 0.00 | 55 | 1001.3 |
| 20260505195217 | 11 | 173 | 3.2 | 6.4 | 0.00 | 0.00 | 0.00 | 58 | 1001.2 |
| 20260505194717 | 11 | 173 | 3.2 | 11.3 | 0.00 | 0.00 | 0.00 | 58 | 1001.3 |
| 20260505194217 | 11 | 171 | 3.2 | 8.0 | 0.00 | 0.00 | 0.00 | 56 | 1001.2 |
| 20260505193717 | 11 | 191 | 4.8 | 8.0 | 0.00 | 0.00 | 0.00 | 56 | 1001.3 |
| 20260505193217 | 11 | 184 | 4.8 | 9.7 | 0.00 | 0.00 | 0.00 | 57 | 1001.3 |
| 20260505192743 | 11 | 194 | 4.8 | 8.0 | 0.00 | 0.00 | 0.00 | 58 | 1001.2 |
| 20260505192217 | 11 | 190 | 4.8 | 8.0 | 0.00 | 0.00 | 0.00 | 57 | 1001.2 |